CAPE
2485 2283 2164 2408 3739 3680 3605 3636 2969 3294 2169 358 195 759 1883 2500 1976 360 71 7 0 1669 1838 1954 1672 1735 1507 1612 1479 928 377 208 348 764 1377 1694 1763 1188 1083 1867 1413 1442 1386
2914 2886 3353 4010 3852 3580 3296 3408 3037 1979 2001 293 567 860 1705 2487 2555 2167 1284 726 1012 1837 2247 1772 1309 1142 957 841 1172 981 632 650 1064 796 1134 725 464 561 1346 1441 1516 1377 1493
2947 3356 3199 3875 3191 3050 3069 3058 2421 1866 1438 1376 1110 1064 1796 1611 1942 1853 2072 1588 1350 1500 1416 1472 1638 1261 1265 1007 872 862 694 577 510 1171 763 700 197 602 1250 1201 1460 1388 1809
2904 3364 3412 2895 2543 2739 2969 3289 1993 1860 1423 1032 775 1705 1488 1364 1640 2149 1981 1853 1879 1579 1245 1444 1489 1330 1284 1197 1016 1018 1013 936 866 982 758 706 918 589 247 712 1190 1451 1973
2899 2957 2914 2647 2654 2714 2435 3042 2472 2126 2007 2089 2100 2637 1975 2095 2310 1949 1921 2352 1951 1374 857 1106 1267 1294 1322 1233 1050 914 797 889 667 885 485 539 812 1117 718 642 981 1724 1481
2726 2691 2914 2860 2592 1986 1889 2024 2299 2447 2619 2486 2646 2615 2031 2173 1714 1807 1756 1058 1156 1568 1260 1387 1249 1304 1150 1191 962 1099 1183 537 577 877 683 481 419 466 563 625 802 543 703
2248 2712 2631 2786 2327 2101 1705 2005 2242 2419 2171 2523 2359 1796 1809 1710 2233 1786 1234 1664 1020 1046 1266 1393 1362 1150 1143 1210 1290 1088 961 701 657 828 834 279 459 470 470 784 717 387 652
2246 2304 2249 2311 2186 1785 1721 1830 2240 2398 2920 2745 2225 2235 1844 2164 1513 1794 1385 1427 1250 1313 1318 1283 1275 1131 1179 1137 1367 1665 1761 1659 1320 1172 1149 915 835 867 612 448 351 526 438
2082 2237 2127 2007 2170 1770 2008 2235 2915 3121 3019 2321 2487 2338 1908 1844 1750 1761 1689 1121 1438 928 1002 813 1048 1071 1326 1466 1544 1129 1006 1491 1228 1481 1423 1305 787 832 641 765 795 824 362
1811 2076 1868 1977 1947 1864 2075 2252 2681 2923 2502 2327 2221 1932 2016 1839 1062 1135 1342 1078 1079 1074 858 484 642 905 1033 1363 1501 1032 673 647 611 820 1140 553 455 855 890 619 575 964 537
1648 2251 1841 1776 1578 1508 1604 2099 2270 2703 2391 2327 2096 1854 1797 1647 1703 1107 1143 827 988 811 533 413 370 231 325 827 941 579 865 781 782 700 697 725 703 726 640 1222 848 492 351
1886 2015 1931 1809 1659 1803 1745 1855 2328 2118 1913 2456 2045 2109 2029 1614 1295 1143 1122 860 749 594 325 212 512 530 197 34 44 53 57 58 43 9 159 199 381 416 462 750 696 641 504
2489 2321 2349 2201 1911 2160 1885 446 1920 1823 1834 2202 2077 2037 2085 1720 1611 969 980 728 516 400 212 146 335 47 11 12 15 15 5 7 5 4 5 3 3 3 0 10 108 143 160
2819 2891 2833 2626 2834 2407 2220 1811 1550 1457 1754 2067 1961 2033 2038 1974 1404 1237 945 684 629 367 284 112 71 61 27 5 9 10 10 8 6 4 4 5 5 12 11 9 6 5 6
2952 3124 2989 3180 2522 2542 2446 2206 1715 1913 2162 2298 1893 2526 1593 1592 1392 1007 875 626 399 15 91 105 39 14 1 0 6 5 6 6 3 3 0 0 0 0 0 1 8 12 7
3002 3164 3103 2425 2287 2075 2569 2730 2641 2471 2568 2331 1645 2535 1917 1844 1336 1114 707 528 77 5 173 34 6 0 0 0 0 3 4 6 7 3 12 2 0 0 0 0 0 0 28
3125 3257 2447 2111 2460 2515 3319 2894 3373 3203 2589 2138 2195 1918 1712 1787 1227 1053 332 359 16 3 57 27 10 0 0 0 0 0 13 12 16 21 16 4 0 1 0 0 0 0 0
3260 2963 2106 2272 2785 2626 2959 3021 2583 2520 2109 1739 1328 1289 1216 1726 1513 1251 637 367 12 0 0 19 12 0 0 0 0 0 14 11 0 0 3 0 0 0 0 0 0 0 0
3552 2334 2450 2936 2450 2647 2434 2573 2156 2425 1297 678 509 169 43 312 1682 453 207 108 21 12 19 19 21 1 0 0 0 0 3 1 0 0 0 0 0 0 0 0 0 0 0
2953 2786 2633 1684 1700 1467 1763 1943 1193 412 118 10 0 2 4 2 619 417 74 12 22 5 10 4 0 0 0 0 0 0 9 0 0 0 0 0 0 0 0 30 18 6 7
1804 1830 1323 1016 819 632 1058 578 53 0 1 1 3 3 2 2 1 0 0 5 3 9 1 2 1 0 0 0 0 0 0 13 11 0 0 0 0 0 0 0 0 0 0
1396 1071 700 347 295 465 291 1 3 7 6 4 3 3 2 2 1 0 0 0 0 0 0 3 0 0 0 0 0 0 0 0 0 0 0 0 0 0 0 0 0 0 0
1223 421 64 7 3 56 8 7 9 6 8 7 6 4 3 2 1 1 0 0 0 0 0 0 2 1 0 0 0 0 0 0 0 0 0 0 0 0 0 0 0 0 0
535 171 28 7 4 9 3 9 7 10 6 5 4 2 1 1 1 2 1 1 1 1 0 0 1 0 0 0 0 0 0 0 0 0 0 0 0 0 0 0 0 0 0
80 53 3 7 5 9 12 6 4 4 7 5 2 1 2 1 1 1 2 3 2 1 1 0 0 1 0 0 0 0 0 0 0 0 0 0 0 0 1 0 0 3 0
10 9 14 12 8 16 7 8 11 11 10 5 1 0 0 0 0 0 0 0 0 0 0 0 0 0 0 0 0 0 0 0 0 0 0 0 7 5 8 11 9 0 0
CIN
0 -1 -1 -1 -35 -11 -20 -1 -1 -6 -15 -106 -113 -74 -14 -19 -29 -155 -307 -340 0 -8 -5 -2 -12 -14 -12 -2 -28 -41 -49 -75 -33 -15 -38 -17 -15 -54 -42 -32 -38 -46 -28
-1 0 -7 -20 -6 -1 -6 -1 -4 -15 -12 -161 -76 -61 -38 -8 -14 -29 -55 -107 -39 -9 -5 -8 -11 -9 -18 -37 -19 -26 -20 -51 -25 -33 -27 -20 -33 -27 -30 -45 -28 -31 -27
-3 -3 -4 -3 -9 -2 -2 -1 -7 -6 -21 -30 -50 -65 -44 -46 -24 -21 -41 -14 -5 -7 -9 -10 -7 -6 -5 -10 -29 -36 -26 -33 -57 -30 -35 -20 -43 -40 -64 -44 -39 -24 -21
-3 -1 -9 -13 -17 -11 0 -3 -13 -1 -21 -34 -30 -9 -28 -30 -16 -13 -27 -14 -9 -1 -4 -3 -4 -5 -4 -2 -7 -22 -23 -24 -20 -23 -42 -67 -19 -27 -28 -31 -33 -25 -14
-2 -3 -6 -39 -14 -1 -1 -3 -1 -1 -2 -3 -7 -3 -12 -32 -6 -6 -5 -8 -23 -7 -5 -7 -3 -3 -3 -1 -3 -12 -33 -27 -37 -17 -42 -56 -38 -24 -25 -7 -19 -24 -30
-3 -24 -24 -24 -25 -52 -48 -31 -11 -1 0 0 0 0 0 -1 -5 -8 -8 -14 -29 -15 -9 0 -3 -3 -4 0 -4 -4 -6 -43 -34 -17 -26 -41 -39 -42 -24 -17 -17 -15 -34
-31 -48 -67 -33 -53 -50 -67 -33 -6 -1 0 0 -1 0 0 -2 -3 -3 -4 -3 -4 -4 -2 -1 -3 -5 -6 -2 -2 -12 -22 -28 -28 -19 -22 -48 -38 -78 -26 -19 -13 -19 -35
-63 -90 -103 -86 -79 -100 -78 -48 -15 -1 -1 0 -1 0 0 -3 -15 -4 -6 -2 -2 -1 0 -1 -3 -10 -4 -2 -2 -2 -3 -1 -5 -2 -1 -8 -22 -49 -42 -62 -30 -13 -23
-66 -85 -103 -122 -84 -105 -56 -26 -1 0 -1 -7 0 0 0 0 0 -1 -2 -1 -2 0 -1 -1 -1 -9 -2 -2 -2 -7 -10 -4 -8 -3 -1 -2 -25 -44 -46 -54 -38 -15 -13
-48 -79 -113 -103 -85 -70 -24 -6 -1 -6 -10 -1 -1 0 0 0 -11 -16 -4 -7 -6 -2 -1 -8 -2 -2 -1 -1 -4 -8 -21 -9 -12 -15 -4 -22 -27 -27 -42 -42 -36 -24 -22
-40 -37 -83 -83 -72 -57 -40 -3 -1 -2 -2 -2 -1 -2 -1 -16 -4 -25 -4 -2 -7 -7 -5 -8 -19 -22 -10 -1 -2 -7 -2 -1 -1 -7 -10 -6 -7 -10 -23 -14 -32 -27 -37
-11 -19 -21 -39 -25 -9 -2 -19 -3 -2 -2 -4 0 0 -2 -8 -12 -8 -2 -1 -8 -7 -14 -27 -5 0 -4 -26 -12 -15 -15 -25 -29 -63 -8 -7 -8 0 0 -1 0 -2 -11
-10 -1 -3 -2 -8 -10 -58 -29 -4 -2 -1 -1 0 -1 -4 -13 -1 -8 -3 -1 -16 -11 -22 -26 -4 -55 -8 -4 -2 0 0 0 0 0 0 0 0 0 0 -3 -5 -1 -1
-11 -2 -10 -11 -13 -43 -31 -17 -2 -2 -2 -2 -1 -1 -21 -14 -1 0 -4 -1 -4 -12 -6 -22 -46 -31 -17 -5 -5 -2 0 0 0 0 0 0 0 0 0 0 0 -29 -56
-1 -12 -5 -24 -72 -41 -25 -9 -1 -3 -4 0 -1 -5 -41 -34 -10 -3 -2 -1 -6 -12 -17 -13 -23 -1 -1 0 -7 -5 -1 0 0 0 0 0 0 0 0 -1 -23 -12 0
0 -4 -3 -59 -68 -47 -22 -3 -4 -1 -4 0 -1 -8 -38 -19 -16 -6 -6 -3 -65 -2 -4 -7 -1 0 0 0 0 -13 -5 -5 -5 -2 -4 -7 0 0 0 0 0 0 0
0 -2 -46 -67 -27 -20 -2 -3 -13 -7 -7 -2 -18 -26 -7 -8 -28 -10 -48 -10 -34 -1 -17 -11 0 0 0 0 0 0 -8 -5 -4 -5 -6 -2 0 -6 0 0 0 0 0
-1 -6 -62 -18 -1 -1 -25 -15 -18 -12 -1 -52 -62 -37 -30 -1 -6 -4 -7 -2 -23 -1 -1 -8 0 0 0 0 0 0 -13 -10 -3 -9 -6 0 0 0 0 0 0 0 0
-14 -47 -12 -10 -37 -16 -20 -2 -2 -2 -79 -152 -166 -231 -35 -141 -1 -44 -42 -36 -51 -1 -9 -3 -2 -1 0 0 0 0 -9 -17 0 0 0 0 0 0 0 0 0 0 0
-40 -23 -32 -127 -105 -99 -57 -11 -70 -214 -330 -429 0 0 0 0 -23 -20 -62 -28 -20 -13 -1 -3 0 0 0 0 0 0 -2 0 0 0 0 0 0 0 0 -2 -3 -4 -5
-167 -133 -204 -280 -244 -238 -105 -199 -265 0 0 0 0 0 0 0 0 0 0 -29 -4 -17 -4 -1 0 0 0 0 0 0 0 -6 -5 0 0 0 0 0 0 0 0 0 0
-136 -214 -299 -329 -308 -251 -311 0 0 0 0 0 0 0 0 0 0 0 0 0 0 0 0 -2 0 0 0 0 0 0 0 0 0 0 0 0 0 0 0 0 0 0 0
-135 -332 -492 -569 -52 -425 -122 0 0 0 0 0 0 0 0 0 0 0 0 0 0 0 0 0 0 0 0 0 0 0 0 0 0 0 0 0 0 0 0 0 0 0 0
-267 -377 -457 -30 0 0 0 0 0 0 0 0 0 0 0 0 0 0 0 0 0 0 0 0 0 0 0 0 0 0 0 0 0 0 0 0 0 0 0 0 0 0 0
-433 -405 -59 0 0 -1 0 0 0 0 0 0 0 0 0 0 0 0 0 0 0 0 0 0 -1 -2 0 0 0 0 0 0 0 0 0 0 0 0 -11 0 0 -7 -4
-444 -81 0 0 0 0 0 0 0 -1 0 0 0 0 0 0 0 0 0 0 0 0 0 0 0 0 0 0 0 0 0 0 0 0 0 0 -11 -8 -15 -12 -16 0 0
Wind_Speed
11 12 9 10 13 9 7 7 7 7 6 4 3 5 3 1 2 5 7 9 11 8 4 4 7 6 5 8 8 5 3 4 10 4 3 2 6 9 9 6 5 7 7
12 12 8 11 8 8 6 6 7 4 4 5 4 1 3 2 1 3 4 10 12 6 4 5 5 7 7 9 8 6 6 7 7 2 0 3 6 8 11 6 5 6 7
14 11 8 9 8 7 7 7 7 6 3 2 1 1 3 4 3 4 5 1 2 4 2 5 4 5 5 7 8 6 8 6 4 5 4 4 4 4 2 6 3 6 4
14 12 9 7 8 10 9 9 7 7 4 1 2 2 4 4 3 4 4 2 5 4 4 6 5 5 4 6 7 5 7 5 5 1 4 6 3 3 0 2 5 4 5
16 15 12 12 8 8 7 10 9 6 6 6 5 2 3 6 3 3 5 5 5 3 5 4 5 5 4 5 6 7 7 5 5 3 2 3 4 5 4 1 2 2 4
15 14 13 12 9 7 7 7 9 6 7 3 4 2 3 4 4 5 6 5 1 4 7 7 6 5 5 5 5 5 7 6 5 3 4 3 3 3 3 3 2 2 2
15 14 13 11 9 9 8 9 10 7 3 4 3 2 2 2 5 3 5 6 6 6 6 7 6 6 4 4 4 4 5 4 4 6 4 4 5 3 2 2 3 4 1
15 14 15 13 11 11 10 10 9 7 6 5 4 3 0 4 4 6 5 4 5 6 8 7 7 9 6 2 2 2 2 3 3 5 4 3 5 3 4 4 4 2 2
16 15 15 14 12 11 12 12 12 10 8 5 5 4 1 3 4 4 5 5 6 6 8 10 9 9 8 6 4 1 2 2 4 5 5 4 5 4 6 4 3 3 2
16 16 14 13 12 12 10 12 11 11 10 8 6 5 4 4 2 5 7 7 6 7 8 9 10 9 10 9 7 5 4 4 3 1 3 4 4 4 4 3 1 2 2
15 15 15 14 13 13 12 10 11 10 9 8 5 5 4 8 5 5 7 5 5 6 7 7 6 9 10 10 9 10 9 9 8 7 6 6 5 2 3 3 2 1 2
15 14 15 15 13 13 14 15 12 10 9 8 6 5 6 7 4 6 5 5 6 6 5 6 7 9 9 10 11 11 10 10 9 9 10 10 7 9 7 4 5 4 4
14 12 13 11 8 6 9 8 11 9 10 8 7 6 8 7 6 5 5 4 5 6 6 7 8 10 10 9 9 9 9 9 9 9 10 10 9 7 6 5 5 5 4
12 12 12 8 6 6 7 7 8 10 10 9 8 5 8 7 6 5 6 4 5 6 7 5 5 8 10 8 7 8 8 8 9 10 10 9 8 7 6 5 5 5 5
12 14 11 9 9 5 4 4 3 8 9 5 5 6 7 9 6 6 7 6 7 6 5 5 7 8 9 8 6 6 7 7 9 9 8 8 10 12 9 4 6 5 5
13 15 13 10 8 6 5 5 6 7 7 6 3 5 7 7 6 7 8 6 5 4 6 5 9 9 7 12 15 7 6 5 5 5 6 6 10 11 12 14 15 10 4
12 15 14 9 9 10 5 4 7 6 4 3 4 5 2 5 5 8 9 8 4 5 6 6 8 7 7 11 12 14 5 5 5 5 4 7 8 5 7 10 13 15 13
14 15 12 9 8 8 8 8 7 3 3 8 6 7 8 4 4 7 8 9 5 5 5 5 7 7 6 12 13 14 6 7 10 9 6 7 8 7 6 9 9 10 10
15 12 11 11 9 9 7 5 3 4 10 6 8 7 9 8 2 9 7 6 7 4 5 5 6 8 7 12 10 8 8 8 8 8 10 7 7 11 10 7 7 6 6
13 13 14 12 10 7 6 5 7 10 9 9 9 8 8 8 4 6 6 5 5 5 6 8 8 11 6 12 11 9 2 7 6 6 6 13 8 10 12 3 4 4 3
14 13 11 10 9 6 5 8 10 9 8 8 7 7 7 7 7 6 5 4 4 6 7 8 8 8 9 9 12 14 7 2 5 6 5 4 9 9 10 10 7 4 5
12 14 12 9 5 6 8 9 8 6 6 8 8 8 7 6 6 8 7 7 5 7 6 5 7 6 5 9 10 11 11 10 7 6 4 2 4 7 9 6 5 7 6
10 12 11 9 8 7 9 9 6 7 8 8 8 8 8 7 7 7 6 6 7 6 5 4 4 3 3 4 10 12 11 9 7 4 5 4 3 5 3 2 6 7 5
9 10 10 9 8 7 8 8 7 7 9 9 9 8 8 8 7 6 6 5 5 4 4 4 3 2 2 4 3 3 4 8 6 4 1 3 6 6 2 2 4 3 4
10 9 10 8 7 7 7 6 6 7 8 9 9 8 7 8 8 7 5 5 4 2 3 2 2 2 3 2 2 3 2 1 2 1 1 2 3 5 4 2 2 2 2
8 7 8 8 7 6 9 7 4 5 6 7 7 6 6 6 7 7 7 11 8 9 9 8 4 2 6 4 1 4 5 6 6 3 4 6 4 2 3 2 2 4 1
Wind_Direction
168 159 183 149 107 127 132 168 177 95 106 114 69 290 311 199 137 274 98 190 273 285 274 270 276 274 240 251 252 240 183 296 272 230 340 240 193 200 215 181 186 200 215
150 147 128 86 122 134 147 155 105 110 162 134 199 131 301 308 236 253 190 207 233 264 255 255 265 270 272 258 248 246 205 230 237 236 194 272 266 230 200 193 174 219 193
144 133 141 139 139 146 161 147 135 147 109 120 129 197 297 297 304 262 275 72 320 277 297 274 273 262 256 267 266 249 221 224 247 217 190 242 245 335 130 158 198 222 205
148 150 146 144 178 166 180 137 143 147 143 203 305 200 255 289 241 236 95 325 248 235 266 276 287 276 265 264 263 255 231 206 216 212 247 270 272 324 169 182 226 225 189
158 159 157 150 180 152 155 142 155 148 165 194 222 263 296 264 39 15 334 282 319 60 333 336 321 301 281 267 264 261 237 209 215 181 165 264 297 205 216 249 265 183 230
141 141 131 160 135 130 138 134 133 186 164 198 192 184 347 11 359 359 303 6 122 74 11 344 340 307 295 279 267 259 253 217 212 201 212 214 246 254 182 199 256 285 227
131 126 143 150 153 137 146 146 163 186 196 202 163 120 75 319 289 348 14 323 3 18 358 349 331 331 307 280 255 261 247 196 185 209 201 230 240 251 262 161 243 239 29
135 152 158 152 162 156 149 149 159 183 192 179 132 82 12 307 26 56 351 17 11 10 4 352 352 341 343 324 314 263 162 159 203 198 224 244 247 245 227 189 188 263 262
152 157 157 160 162 154 162 159 164 160 170 163 133 143 125 56 53 50 7 27 24 8 11 0 360 0 357 345 352 300 283 178 220 209 212 223 256 264 277 186 163 174 213
153 151 155 164 166 166 169 165 164 160 171 143 163 162 165 107 61 87 58 38 28 26 24 9 7 14 13 21 31 22 20 354 350 58 219 230 235 263 312 325 349 191 198
156 148 157 164 167 169 181 150 164 163 141 157 140 170 163 105 60 86 79 59 48 41 36 17 21 33 22 33 37 45 34 48 41 29 33 28 1 345 352 352 325 229 202
151 155 153 160 170 176 167 167 173 145 152 127 144 157 132 104 80 106 87 74 57 48 53 29 33 49 46 40 41 40 37 38 42 35 42 31 40 37 27 34 36 18 360
133 148 144 157 161 166 114 191 144 152 138 138 164 190 134 118 106 99 100 74 91 75 57 39 45 60 52 42 47 61 58 48 39 41 42 32 41 48 37 34 38 48 44
139 130 123 141 119 102 118 133 158 142 137 177 166 163 121 128 113 111 120 85 73 74 70 48 68 70 66 53 55 57 65 62 56 51 44 40 31 36 44 47 59 72 72
148 129 140 115 109 93 57 100 136 127 137 156 184 154 120 127 132 126 96 82 66 77 75 76 63 68 61 44 38 71 67 73 67 65 64 52 53 52 44 42 33 53 71
155 141 138 130 131 138 218 183 112 133 149 173 131 152 126 137 147 130 123 107 93 88 84 81 72 71 62 17 26 35 84 63 78 81 90 115 76 59 61 62 55 45 81
164 143 138 156 165 178 191 139 88 90 126 96 13 43 271 173 172 143 134 122 114 106 98 60 79 81 77 33 21 12 91 80 73 61 93 82 50 63 83 54 44 38 42
157 140 142 162 165 148 67 75 92 95 108 66 47 23 4 321 199 137 137 123 132 125 114 106 96 93 59 36 21 351 85 71 53 33 64 80 60 26 65 78 65 53 46
129 125 132 103 86 92 105 100 121 112 88 58 55 29 15 345 304 127 137 136 138 136 126 111 96 98 67 28 19 13 99 80 76 59 32 54 42 359 2 109 112 109 105
112 111 104 98 83 68 80 88 54 58 57 49 42 27 5 343 325 126 134 131 135 127 105 85 73 66 59 26 13 7 142 130 118 103 73 50 30 7 12 119 109 79 109
98 101 98 92 93 91 91 86 78 66 57 59 56 44 25 11 17 58 59 115 130 97 108 98 82 72 34 43 15 20 44 356 92 89 75 39 6 21 18 47 44 46 345
131 104 96 89 83 113 103 87 92 92 86 82 73 59 44 30 34 52 46 44 83 95 85 93 82 47 25 32 32 36 44 42 73 78 86 88 27 47 33 61 12 358 334
102 101 94 89 64 58 100 116 109 103 95 88 83 74 63 49 41 45 50 59 56 75 73 86 84 72 14 39 32 41 37 51 86 84 93 86 350 326 53 327 301 314 284
93 110 123 114 111 96 99 117 124 120 113 105 101 88 76 71 58 57 48 57 60 67 80 94 105 134 95 72 45 44 61 60 65 107 152 263 275 254 164 297 284 20 7
78 83 98 105 109 109 105 111 118 121 115 113 106 102 98 94 83 61 44 64 50 45 115 110 117 140 114 94 19 354 65 141 54 309 3 299 261 254 199 125 27 133 321
116 112 117 126 135 124 119 118 119 130 142 134 118 118 121 117 110 106 89 55 60 50 62 65 78 57 65 105 18 18 33 58 38 271 254 247 232 13 37 40 162 138 191